Weather History for KBAF - March, 2013

Change the Weather History Date:

Tuesday, March 26, 2013

  Actual Average Record
Temperature  
Mean Temperature 38 °F -  
Max Temperature 48 °F 47 °F 71 °F (2004)
Min Temperature 27 °F 29 °F 18 °F (2001)
Degree Days  
Heating Degree Days 27    
Moisture  
Dew Point 23 °F    
Average Humidity 55    
Maximum Humidity 78    
Minimum Humidity 32    
Precipitation  
Precipitation 0.00 in - - ()
Sea Level Pressure  
Sea Level Pressure 29.71 in    
Wind  
Wind Speed 5 mph (NNW)    
Max Wind Speed 17 mph    
Max Gust Speed 21 mph    
Visibility 10 miles    
Events      
Averages and records for this station are not official NWS values.
T = Trace of Precipitation, MM = Missing Value Source: NWS Daily Summary

Daily Weather History Graph

Daily Weather History Graph

Search for Another Location

Airport or City:

Trip Planner

Search our weather history database for the weather conditions in past years. The results will help you decide how hot, cold, wet, or windy it might be!

Date:

Astronomy

Mar. 26, 2013 Rise Set
Actual Time 6:43 AM EDT 7:10 PM EDT
Civil Twilight 6:15 AM EDT 7:38 PM EDT
Nautical Twilight 5:42 AM EDT 8:11 PM EDT
Astronomical Twilight 5:08 AM EDT 8:45 PM EDT
Moon 6:44 PM EDT (3/26) 5:58 AM EDT (3/26)
Length of Visible Light 13h 22m
Length of Day
12h 26m
Waxing Gibbous, 99% of the Moon is Illuminated
Mar 26
Waxing Gibbous
Mar 27
Full
Apr 3
Last Quarter
Apr 10
New
Apr 18
First Quarter

Hourly Weather History & Observations

Time (EDT) Temp. Windchill Dew Point Humidity Pressure Visibility Wind Dir Wind Speed Gust Speed Precip Events Conditions
12:53 AM 37.0 °F 32.4 °F 28.0 °F 70% 29.59 in 9.0 mi NNW 5.8 mph - 0.00 in   Overcast
1:53 AM 37.0 °F 32.4 °F 28.0 °F 70% 29.59 in 10.0 mi NNW 5.8 mph - N/A   Overcast
2:53 AM 37.0 °F 33.3 °F 28.0 °F 70% 29.60 in 10.0 mi North 4.6 mph - N/A   Overcast
3:53 AM 36.0 °F - 27.0 °F 70% 29.60 in 10.0 mi Calm Calm - N/A   Overcast
4:53 AM 36.0 °F - 27.0 °F 70% 29.62 in 10.0 mi Calm Calm - N/A   Overcast
5:53 AM 36.0 °F - 27.0 °F 70% 29.64 in 10.0 mi Calm Calm - N/A   Overcast
6:53 AM 35.1 °F - 28.9 °F 78% 29.65 in 10.0 mi Calm Calm - 0.00 in   Overcast
7:53 AM 37.0 °F - 28.0 °F 70% 29.68 in 10.0 mi Calm Calm - N/A   Overcast
8:53 AM 37.9 °F - 28.9 °F 70% 29.70 in 10.0 mi Calm Calm - N/A   Overcast
9:53 AM 42.1 °F 38.4 °F 27.0 °F 55% 29.70 in 10.0 mi North 5.8 mph - N/A   Overcast
10:53 AM 44.1 °F 38.6 °F 23.0 °F 43% 29.70 in 10.0 mi North 10.4 mph 18.4 mph N/A   Overcast
11:53 AM 42.1 °F 37.1 °F 28.0 °F 58% 29.73 in 10.0 mi NE 8.1 mph - N/A   Overcast
12:53 PM 43.0 °F 38.2 °F 27.0 °F 53% 29.73 in 10.0 mi North 8.1 mph - N/A   Overcast
1:53 PM 45.0 °F 38.9 °F 21.9 °F 40% 29.72 in 10.0 mi North 12.7 mph - N/A   Overcast
2:53 PM 46.0 °F 39.9 °F 21.0 °F 37% 29.73 in 10.0 mi NNW 13.8 mph - N/A   Overcast
3:53 PM 46.0 °F 39.0 °F 19.0 °F 34% 29.74 in 10.0 mi WNW 17.3 mph - N/A   Mostly Cloudy
4:53 PM 46.9 °F - 18.0 °F 32% 29.74 in 10.0 mi West 13.8 mph 19.6 mph N/A   Mostly Cloudy
5:20 PM 46.4 °F 40.7 °F 17.6 °F 32% 29.73 in 10.0 mi NNW 12.7 mph 20.7 mph N/A   Scattered Clouds
5:53 PM 46.0 °F 41.0 °F 18.0 °F 33% 29.75 in 10.0 mi NW 10.4 mph - N/A   Clear
6:53 PM 44.1 °F 38.1 °F 17.1 °F 34% 29.78 in 10.0 mi NW 11.5 mph - N/A   Clear
7:53 PM 39.9 °F 36.7 °F 18.0 °F 41% 29.80 in 10.0 mi WNW 4.6 mph - N/A   Mostly Cloudy
8:53 PM 37.0 °F 33.3 °F 19.0 °F 48% 29.81 in 10.0 mi NW 4.6 mph - N/A   Clear
9:53 PM 33.1 °F - 19.9 °F 59% 29.82 in 10.0 mi Calm Calm - N/A   Clear
10:53 PM 30.0 °F - 21.0 °F 69% 29.83 in 10.0 mi Calm Calm - N/A   Clear
11:53 PM 27.0 °F - 21.0 °F 78% 29.84 in 10.0 mi Calm Calm - N/A   Clear